Location: Cubitt Town
(51.4833°N, 0.0000°E)
Time: 02:26:32
(UTC+00:00)

ATLAS 2AS CENTAUR R/B - Pass Details

Date: 15 May 2026
Orbit: 1053 x 1158 km, 63.7° (Epoch: 8 June)

Event Time Altitude Azimuth Distance (km) Brightness Sun altitude
Rises 20:48:38 0° 268° (W) 3,878 6.3 -8.4°
Reaches altitude 10° 20:51:36 10° 278° (W) 2,909 5.8 -8.8°
Maximum altitude 20:57:47 35° 342° (NNW) 1,663 4.5 -9.4°
Drops below altitude 10° 21:03:55 10° 47° (NE) 2,879 5.0 -10.1°
Sets 21:06:50 0° 56° (NE) 3,833 5.5 -10.4°
